AFR722 LFPG-FCBB

Flight info

Callsign AFR722
Flight time N/A
Altitude 31000
Route AGOPA DCT ARKIP DCT ARMAL/N0485F330 DCT ARTAX DCT BEBIX DCT LMG DCT UVELI DCT OSMOB DCT VAVIX DCT NETUK DCT PPN DCT NOLSA DCT ALEPO DCT VASUM N10 CJN L27 BLN DCT MGA DCT PIMOS DCT GALTO UN869 MABAP DCT BULIS UR981 TISEN/N0487F350 UR981 BAKAB UA603 LIPET DCT BATIA DCT TENTU DCT ARDEX DCT BTA DCT MOVOD UG856 BZ
Aircraft B772/H-SDE2E3FGHIJ5LORVWXY/LB1D1

Departure

Time N/A
Airport Charles de Gaulle International Airport (LFPG)

Arrival

Time 2026-04-18 17:51
Airport Maya-Maya International Airport (FCBB)
Time Latitude Longitude Altitude Speed Heading
2026-04-18 16:58 4.22910 7.76576 34764 ft 475 kts 136°
2026-04-18 16:59 4.13061 7.86287 34764 ft 474 kts 136°
2026-04-18 16:59 4.11933 7.87399 34765 ft 474 kts 136°
2026-04-18 17:00 4.04755 7.93870 34756 ft 475 kts 140°
2026-04-18 17:00 3.94698 8.02568 34770 ft 476 kts 139°
2026-04-18 17:01 3.84625 8.11328 34772 ft 474 kts 139°
2026-04-18 17:01 3.74688 8.19994 34786 ft 475 kts 139°
2026-04-18 17:02 3.64769 8.28656 34782 ft 473 kts 139°
2026-04-18 17:02 3.54817 8.37350 34775 ft 474 kts 139°
2026-04-18 17:03 3.44791 8.46109 34776 ft 474 kts 139°
2026-04-18 17:03 3.34651 8.54966 34787 ft 474 kts 139°
2026-04-18 17:04 3.24446 8.63880 34779 ft 473 kts 139°
2026-04-18 17:04 3.14452 8.72606 34767 ft 475 kts 139°
2026-04-18 17:05 3.04459 8.81330 34766 ft 474 kts 139°
2026-04-18 17:05 2.94525 8.90000 34768 ft 474 kts 139°
2026-04-18 17:06 2.84524 8.98726 34777 ft 475 kts 139°
2026-04-18 17:06 2.74559 9.07419 34785 ft 472 kts 139°
2026-04-18 17:07 2.64600 9.16105 34787 ft 475 kts 139°
2026-04-18 17:07 2.54698 9.24739 34781 ft 473 kts 138°
2026-04-18 17:08 2.44666 9.33485 34787 ft 474 kts 138°
2026-04-18 17:08 2.34763 9.42116 34788 ft 474 kts 138°
2026-04-18 17:09 2.24770 9.50823 34785 ft 474 kts 138°
2026-04-18 17:09 2.14819 9.59493 34792 ft 475 kts 138°
2026-04-18 17:10 2.04853 9.68174 34790 ft 475 kts 138°
2026-04-18 17:10 1.94732 9.76888 34777 ft 478 kts 143°
2026-04-18 17:11 1.83006 9.83141 34863 ft 479 kts 154°
2026-04-18 17:11 1.70640 9.88627 34860 ft 480 kts 155°
2026-04-18 17:12 1.58277 9.93904 34884 ft 480 kts 156°
2026-04-18 17:12 1.45908 9.99087 34904 ft 480 kts 156°
2026-04-18 17:13 1.33549 10.04220 34882 ft 480 kts 156°
2026-04-18 17:13 1.21206 10.09324 34869 ft 482 kts 156°
2026-04-18 17:14 1.08753 10.14462 34852 ft 482 kts 156°
2026-04-18 17:14 0.96276 10.19605 34852 ft 484 kts 156°
2026-04-18 17:15 0.83807 10.24742 34859 ft 484 kts 156°
2026-04-18 17:15 0.71107 10.29973 34853 ft 485 kts 156°
2026-04-18 17:16 0.58538 10.35149 34865 ft 484 kts 156°
2026-04-18 17:16 0.45709 10.40431 34866 ft 484 kts 156°
2026-04-18 17:17 0.33217 10.45574 34841 ft 486 kts 157°
2026-04-18 17:17 0.20511 10.50805 34835 ft 487 kts 157°
2026-04-18 17:18 0.07777 10.56048 34815 ft 487 kts 157°
2026-04-18 17:18 -0.04864 10.61252 34812 ft 487 kts 158°
2026-04-18 17:19 -0.23068 10.68746 34818 ft 485 kts 157°
2026-04-18 17:19 -0.47826 10.78939 34826 ft 491 kts 157°
2026-04-18 17:20 -0.59940 10.83927 34836 ft 488 kts 157°
2026-04-18 17:20 -0.65992 10.87015 34833 ft 486 kts 144°
2026-04-18 17:20 -0.71239 10.91344 34820 ft 486 kts 136°
2026-04-18 17:21 -0.80720 11.01106 34841 ft 485 kts 131°
2026-04-18 17:21 -0.89672 11.11281 34847 ft 485 kts 130°
2026-04-18 17:22 -0.98367 11.21618 34856 ft 484 kts 128°
2026-04-18 17:22 -1.06942 11.32031 34857 ft 483 kts 128°
2026-04-18 17:23 -1.15482 11.42506 34861 ft 481 kts 128°
2026-04-18 17:23 -1.23922 11.52908 34862 ft 480 kts 128°
2026-04-18 17:24 -1.32389 11.63368 34879 ft 480 kts 128°
2026-04-18 17:24 -1.40798 11.73769 34908 ft 479 kts 128°
2026-04-18 17:25 -1.48785 11.83653 34928 ft 479 kts 128°
2026-04-18 17:25 -1.57197 11.94068 34942 ft 480 kts 128°
2026-04-18 17:26 -1.65575 12.04443 34957 ft 479 kts 128°
2026-04-18 17:26 -1.96188 12.42373 35312 ft 475 kts 128°
2026-04-18 17:26 -2.13257 12.63534 34585 ft 475 kts 128°
2026-04-18 17:27 -2.34099 12.89385 34850 ft 475 kts 128°
2026-04-18 17:27 -2.67173 13.30267 35288 ft 479 kts 129°
2026-04-18 17:27 -2.97419 13.67319 35230 ft 474 kts 128°
2026-04-18 17:28 -3.02443 13.73497 34868 ft 465 kts 129°
2026-04-18 17:28 -3.06451 13.78428 34858 ft 470 kts 129°
2026-04-18 17:28 -3.14793 13.88689 34913 ft 472 kts 129°
2026-04-18 17:29 -3.22109 13.97691 34889 ft 470 kts 128°
2026-04-18 17:29 -3.30569 14.08103 33940 ft 463 kts 129°
2026-04-18 17:30 -3.34644 14.13119 32003 ft 466 kts 129°
2026-04-18 17:30 -3.38798 14.18233 29659 ft 474 kts 129°
2026-04-18 17:30 -3.42924 14.23313 28074 ft 473 kts 128°
2026-04-18 17:30 -3.46938 14.28257 27397 ft 463 kts 128°
2026-04-18 17:31 -3.49003 14.30799 26692 ft 463 kts 128°
2026-04-18 17:31 -3.51048 14.33318 25714 ft 468 kts 128°
2026-04-18 17:31 -3.53107 14.35853 25012 ft 466 kts 128°
2026-04-18 17:31 -3.55109 14.38319 24426 ft 462 kts 128°
2026-04-18 17:32 -3.57148 14.40831 23856 ft 457 kts 128°
2026-04-18 17:32 -3.59141 14.43286 23285 ft 452 kts 128°
2026-04-18 17:32 -3.61177 14.45795 22698 ft 448 kts 128°
2026-04-18 17:32 -3.63143 14.48217 22131 ft 444 kts 128°
2026-04-18 17:33 -3.65080 14.50604 21570 ft 440 kts 128°
2026-04-18 17:33 -3.68928 14.55347 20427 ft 433 kts 128°
2026-04-18 17:33 -3.70809 14.57666 19858 ft 430 kts 128°
2026-04-18 17:34 -3.72719 14.60020 19280 ft 426 kts 128°
2026-04-18 17:34 -3.74573 14.62306 18710 ft 423 kts 128°
2026-04-18 17:34 -3.76424 14.64587 18139 ft 420 kts 128°
2026-04-18 17:34 -3.78278 14.66874 17573 ft 416 kts 128°
2026-04-18 17:35 -3.80041 14.69048 17026 ft 413 kts 128°
2026-04-18 17:35 -3.81853 14.71282 16460 ft 410 kts 128°
2026-04-18 17:35 -3.83641 14.73486 15900 ft 407 kts 127°
2026-04-18 17:35 -3.85425 14.75687 15376 ft 402 kts 127°
2026-04-18 17:36 -3.87146 14.77809 15202 ft 389 kts 127°
2026-04-18 17:36 -3.88813 14.79864 15131 ft 373 kts 127°
2026-04-18 17:36 -3.90449 14.81882 15097 ft 357 kts 127°
2026-04-18 17:36 -3.91967 14.83753 14938 ft 340 kts 127°
2026-04-18 17:37 -3.93417 14.85542 14697 ft 323 kts 127°
2026-04-18 17:37 -3.94808 14.87258 14425 ft 309 kts 127°
2026-04-18 17:37 -3.96141 14.88904 13955 ft 305 kts 127°
2026-04-18 17:37 -3.97479 14.90557 13357 ft 305 kts 126°
2026-04-18 17:38 -3.98827 14.92221 12789 ft 303 kts 126°
2026-04-18 17:38 -4.00151 14.93855 12267 ft 300 kts 126°
2026-04-18 17:38 -4.01462 14.95473 11724 ft 298 kts 126°
2026-04-18 17:38 -4.02343 14.96560 11374 ft 296 kts 126°
2026-04-18 17:39 -4.03677 14.98206 10841 ft 294 kts 126°
2026-04-18 17:39 -4.04952 14.99780 10314 ft 292 kts 126°
2026-04-18 17:39 -4.06229 15.01356 9878 ft 290 kts 125°
2026-04-18 17:39 -4.07582 15.03027 9562 ft 288 kts 125°
2026-04-18 17:40 -4.08848 15.04590 9248 ft 287 kts 126°
2026-04-18 17:40 -4.10113 15.06152 8939 ft 286 kts 126°
2026-04-18 17:40 -4.11369 15.07704 8621 ft 285 kts 126°
2026-04-18 17:40 -4.12619 15.09247 8312 ft 284 kts 126°
2026-04-18 17:41 -4.13878 15.10801 7975 ft 283 kts 126°
2026-04-18 17:41 -4.15163 15.12389 7663 ft 282 kts 126°
2026-04-18 17:41 -4.16392 15.13907 7368 ft 280 kts 126°
2026-04-18 17:41 -4.17617 15.15418 7235 ft 272 kts 126°
2026-04-18 17:42 -4.18783 15.16856 7191 ft 260 kts 126°
2026-04-18 17:42 -4.19901 15.18237 7152 ft 249 kts 125°
2026-04-18 17:42 -4.20965 15.19551 7106 ft 237 kts 125°
2026-04-18 17:42 -4.21976 15.20800 7017 ft 225 kts 125°
2026-04-18 17:43 -4.22944 15.21997 6812 ft 219 kts 125°
2026-04-18 17:43 -4.23337 15.22483 6802 ft 213 kts 125°
2026-04-18 17:43 -4.24231 15.23614 6730 ft 199 kts 119°
2026-04-18 17:43 -4.24774 15.24847 6472 ft 193 kts 99°
2026-04-18 17:44 -4.24850 15.26187 6163 ft 191 kts 81°
2026-04-18 17:44 -4.24650 15.27483 5907 ft 189 kts 79°
2026-04-18 17:44 -4.24430 15.28782 5654 ft 188 kts 78°
2026-04-18 17:44 -4.24233 15.29902 5402 ft 189 kts 78°
2026-04-18 17:45 -4.24061 15.30881 5205 ft 189 kts 78°
2026-04-18 17:45 -4.23833 15.32176 4930 ft 189 kts 79°
2026-04-18 17:45 -4.23605 15.33478 4685 ft 188 kts 79°
2026-04-18 17:45 -4.23386 15.34720 4476 ft 174 kts 79°
2026-04-18 17:46 -4.23182 15.35882 4219 ft 166 kts 79°
2026-04-18 17:46 -4.22986 15.37023 3868 ft 166 kts 79°
2026-04-18 17:46 -4.22785 15.38160 3500 ft 167 kts 74°
2026-04-18 17:46 -4.22133 15.39095 3116 ft 166 kts 30°
2026-04-18 17:47 -4.21026 15.39301 3059 ft 168 kts
2026-04-18 17:47 -4.19815 15.39285 3028 ft 167 kts
2026-04-18 17:47 -4.18624 15.39272 3031 ft 170 kts
2026-04-18 17:47 -4.17428 15.39254 3030 ft 170 kts 356°
2026-04-18 17:48 -4.16359 15.38805 3023 ft 173 kts 315°
2026-04-18 17:48 -4.15862 15.37701 3021 ft 178 kts 273°
2026-04-18 17:48 -4.16097 15.36516 3018 ft 178 kts 237°
2026-04-18 17:48 -4.16888 15.35556 3031 ft 179 kts 228°
2026-04-18 17:49 -4.17722 15.34615 3031 ft 178 kts 228°
2026-04-18 17:49 -4.18550 15.33675 2895 ft 180 kts 230°
2026-04-18 17:49 -4.19291 15.32693 2664 ft 172 kts 234°
2026-04-18 17:49 -4.19957 15.31764 2453 ft 156 kts 234°
2026-04-18 17:50 -4.20583 15.30888 2256 ft 154 kts 234°
2026-04-18 17:50 -4.21206 15.30019 2059 ft 152 kts 235°
2026-04-18 17:50 -4.21822 15.29161 1836 ft 151 kts 234°
2026-04-18 17:50 -4.22439 15.28316 1580 ft 150 kts 233°
2026-04-18 17:51 -4.23086 15.27494 1368 ft 147 kts 231°
2026-04-18 17:51 -4.23747 15.26707 1171 ft 149 kts 231°
2026-04-18 17:51 -4.24388 15.25945 1057 ft 111 kts 230°
2026-04-18 17:51 -4.24523 15.25782 1057 ft 0 kts 230°
2026-04-18 17:53 -4.24538 15.25764 1057 ft 10 kts 230°
2026-04-18 17:53 -4.24619 15.25665 1055 ft 24 kts 231°
2026-04-18 17:53 -4.24733 15.25525 1052 ft 23 kts 230°
2026-04-18 17:53 -4.24846 15.25398 1049 ft 25 kts 229°
2026-04-18 17:54 -4.24960 15.25261 1046 ft 26 kts 230°
2026-04-18 17:54 -4.25072 15.25175 1046 ft 17 kts 166°
2026-04-18 17:54 -4.25174 15.25252 1047 ft 18 kts 140°
2026-04-18 17:54 -4.25272 15.25333 1049 ft 18 kts 140°
2026-04-18 17:55 -4.25364 15.25372 1049 ft 15 kts 199°
2026-04-18 17:55 -4.25446 15.25296 1047 ft 17 kts 230°
2026-04-18 17:55 -4.25540 15.25204 1045 ft 19 kts 201°
2026-04-18 17:55 -4.25639 15.25196 1046 ft 11 kts 178°
2026-04-18 17:56 -4.25666 15.25197 1047 ft 0 kts 178°